Temperature
22 21 21 22 27 30 30 29 30 29 29 28 27 27 28 28 27 25 21 21 20 20 20 20 20 20 19 19 19 19 19 19 19 19 19 19 19 19 19 19 18 18 18 18 18 18 18 18 18
21 21 21 25 30 30 29 30 29 29 28 27 27 27 27 26 24 22 21 20 20 20 20 19 20 19 19 19 19 19 19 19 19 19 19 19 19 19 18 18 18 18 18 18 18 18 18 18 18
21 21 24 29 30 30 29 30 29 29 27 27 27 26 26 25 23 21 20 20 20 20 19 19 20 19 19 19 19 19 19 19 19 19 19 19 18 18 18 18 18 18 18 18 18 18 18 18 18
21 23 26 30 30 30 30 30 29 29 28 27 27 26 24 22 22 21 20 20 20 20 19 19 20 19 19 19 19 19 19 19 18 18 18 18 18 18 18 18 18 18 18 18 18 18 18 18 18
23 27 30 30 30 30 30 29 28 29 28 27 27 27 24 21 21 21 20 20 20 20 19 19 19 19 19 19 19 19 18 18 18 18 18 18 18 18 18 18 18 18 18 18 18 18 18 18 17
26 29 30 29 30 30 29 28 28 29 28 27 27 27 24 21 21 21 20 20 20 19 19 19 19 19 19 18 18 18 18 18 18 18 18 18 18 18 18 17 17 17 17 17 17 17 17 17 17
28 30 30 29 29 29 29 28 28 29 28 27 26 27 24 21 20 20 20 20 20 19 19 18 18 18 18 18 18 18 18 18 18 17 17 17 17 17 17 17 17 17 17 17 17 17 17 17 17
27 30 30 29 29 29 29 28 28 28 28 26 26 27 25 21 20 20 20 20 19 19 19 18 18 18 18 18 18 18 18 18 17 17 17 17 17 17 17 17 17 17 17 17 17 17 17 17 17
26 29 29 30 29 29 29 28 28 27 27 26 25 25 24 21 20 20 20 20 19 19 18 18 18 18 17 17 17 17 17 17 17 17 17 17 16 16 16 16 17 17 17 17 17 17 17 17 17
27 29 29 30 30 29 29 28 28 27 27 26 25 23 22 21 20 20 20 20 19 19 18 18 18 17 17 17 17 17 17 17 16 16 16 16 16 16 16 16 17 17 17 17 17 17 17 16 16
28 29 29 29 28 28 28 28 27 28 28 27 26 23 21 21 21 21 21 20 20 19 18 18 18 17 17 17 17 17 17 16 16 16 16 16 16 16 16 16 16 16 16 16 16 16 16 16 16
29 29 28 28 27 27 28 28 28 27 27 26 25 23 22 21 21 21 21 20 19 19 18 18 18 17 17 17 17 17 17 16 16 16 16 16 16 16 16 16 16 16 16 16 16 16 16 16 16
28 29 27 27 27 27 27 27 27 26 25 25 24 23 22 22 21 21 20 20 19 19 18 18 18 17 17 17 17 16 16 16 16 16 16 16 16 16 16 16 16 16 16 16 16 16 16 16 16
28 28 27 27 27 27 27 27 27 26 25 24 23 23 22 22 21 20 20 19 19 19 18 18 18 17 17 17 17 16 16 16 16 16 16 16 16 16 15 16 16 15 16 16 16 16 15 15 16
27 28 28 28 28 27 27 28 28 26 25 24 24 23 22 21 21 20 19 19 19 19 18 18 18 17 17 17 17 16 16 16 16 16 16 16 16 16 15 15 16 15 15 15 15 15 15 15 15
28 28 28 29 28 27 27 28 27 25 24 24 24 22 22 21 20 20 19 19 19 18 18 18 17 17 17 17 17 16 16 16 16 16 16 16 16 16 15 15 15 15 15 15 15 15 15 15 15
29 28 29 29 29 28 28 28 27 25 25 24 23 23 22 21 20 19 19 19 19 18 18 18 17 17 17 17 17 16 16 16 16 16 15 16 16 15 15 15 15 15 15 15 15 15 15 15 15
28 29 29 29 29 28 28 28 27 25 25 24 24 23 22 21 20 19 19 19 18 18 18 18 17 17 17 16 16 16 16 16 16 15 15 15 15 15 15 15 15 15 15 15 15 15 15 15 15
29 28 28 29 28 28 28 27 27 26 25 25 24 23 22 21 20 19 19 18 18 18 18 18 17 17 17 16 16 16 16 15 15 15 15 15 15 15 15 15 15 15 15 14 14 14 14 14 15
28 28 28 28 28 27 27 27 27 26 25 24 24 23 22 21 20 19 19 18 18 18 18 17 17 17 17 16 16 16 15 15 15 15 15 15 15 15 14 14 14 14 14 14 14 14 14 14 14
28 28 28 28 27 27 27 27 27 26 25 24 23 23 22 21 21 19 19 18 18 18 18 17 17 17 17 16 16 15 15 15 15 15 15 15 15 14 14 14 14 14 14 14 14 14 14 14 14
27 28 28 27 27 27 27 27 27 26 25 25 24 23 22 21 21 20 19 18 18 18 17 17 17 17 16 16 15 15 15 15 15 14 14 14 14 14 14 14 14 14 14 14 14 14 14 14 14
28 28 27 27 27 27 27 26 27 26 26 25 24 23 22 21 21 20 19 18 18 17 17 17 17 16 16 16 15 15 15 14 14 14 14 14 14 14 14 14 14 14 13 13 13 13 13 13 13
28 27 27 27 27 26 27 26 26 27 26 26 25 23 22 21 21 20 19 18 18 17 17 17 16 16 16 16 15 15 14 14 14 14 14 14 14 14 14 13 13 13 13 13 13 13 13 13 13
27 27 26 26 26 26 27 26 26 26 26 25 25 23 22 21 21 20 19 19 18 17 17 16 16 16 15 15 15 14 14 14 14 14 14 13 14 13 13 13 13 13 13 13 13 13 13 13 13
27 27 26 25 26 27 27 26 26 26 25 24 23 23 22 21 20 20 19 18 18 17 17 16 16 16 15 15 15 14 14 14 14 13 13 13 13 13 13 13 13 13 13 13 13 12 12 12 12
27 27 28 27 26 26 27 26 26 25 24 24 23 22 22 21 20 20 19 18 17 17 16 16 16 15 15 14 14 14 14 14 13 13 13 13 13 13 13 13 13 13 12 12 12 12 12 12 12
28 28 27 26 25 25 26 26 26 25 25 24 24 23 22 21 20 19 19 18 17 17 16 15 15 15 15 14 14 14 13 13 13 13 13 13 13 13 13 12 12 12 12 12 12 12 12 12 12
26 26 26 26 26 25 25 26 26 26 25 24 24 22 22 21 20 19 18 17 17 16 16 15 15 14 14 14 14 13 13 13 13 13 13 13 13 13 12 12 12 12 12 12 12 12 12 12 11
27 27 26 25 25 25 25 25 25 25 24 23 23 22 21 20 19 18 18 17 16 16 15 15 14 14 14 14 13 13 13 13 13 13 13 13 13 13 12 12 12 12 12 12 12 11 11 11 11
Wind_Speed
10 8 6 5 5 2 4 4 3 3 3 3 2 1 2 4 4 4 5 8 9 11 13 14 12 11 10 10 10 10 11 11 12 12 12 12 11 11 10 10 10 10 9 9 9 8 8 8 9
7 5 5 5 4 2 4 3 2 3 3 2 2 1 1 3 5 5 6 8 10 11 12 12 12 10 10 9 9 10 11 11 11 11 12 11 11 10 10 9 9 9 9 8 8 7 7 8 8
6 6 4 4 1 3 4 3 3 3 2 2 2 1 2 3 4 4 7 10 10 10 11 12 11 10 9 9 9 9 10 10 11 11 11 11 10 10 9 9 9 8 8 8 7 7 7 7 8
5 5 5 4 1 3 3 2 1 2 3 2 2 2 3 4 2 6 10 10 10 10 10 13 11 10 9 9 8 9 9 9 9 10 11 10 10 9 8 8 8 8 8 7 6 6 6 7 7
5 5 5 1 2 3 2 1 1 1 2 2 2 2 4 4 6 9 11 10 9 9 9 12 11 9 8 8 8 8 8 8 9 9 9 9 9 9 8 8 7 7 7 7 6 6 6 6 7
4 4 4 0 3 3 2 1 2 2 1 2 2 3 4 6 8 10 10 9 8 8 8 11 12 10 9 8 7 7 7 8 8 8 8 9 9 8 8 7 7 7 7 6 6 6 6 7 6
6 4 3 2 1 1 3 1 2 2 1 1 2 2 5 8 8 9 9 8 8 8 8 9 10 9 9 8 7 7 7 8 8 7 8 8 8 8 8 7 7 6 6 6 6 6 6 7 6
5 4 3 2 2 1 2 1 1 2 0 2 2 2 4 9 9 9 8 8 8 7 7 7 8 8 8 8 8 7 7 8 8 8 7 7 8 8 8 8 7 6 6 6 6 6 6 7 6
5 5 4 2 3 2 1 2 1 1 2 3 2 1 5 12 11 10 9 8 8 7 6 6 7 7 7 7 8 8 8 8 9 8 8 8 8 8 8 6 6 6 6 6 6 6 6 7 9
5 6 3 3 5 4 3 3 2 3 5 4 4 4 9 12 11 10 10 9 9 8 7 6 6 6 6 5 7 6 7 8 7 6 8 7 5 5 5 7 7 7 7 7 7 6 8 10 8
5 6 4 5 5 5 5 4 3 5 4 4 5 7 10 11 10 10 9 8 8 7 6 5 5 4 4 4 5 4 4 6 7 6 6 5 5 5 4 5 7 8 8 8 8 9 8 8 6
6 6 6 7 6 7 6 5 4 5 4 2 3 8 11 11 11 9 8 7 7 7 7 5 5 4 4 4 4 4 4 4 4 6 6 5 4 3 3 4 5 5 6 5 6 5 6 6 6
8 7 6 7 7 6 6 6 5 4 3 2 5 8 10 10 9 8 7 6 7 7 7 6 6 5 4 4 4 4 3 4 4 4 6 6 4 4 4 4 4 5 5 5 5 6 5 6 7
6 6 7 7 7 5 5 5 5 3 2 5 7 8 9 9 8 7 7 7 7 7 7 6 6 6 5 4 4 3 4 4 4 5 6 6 5 4 4 4 4 5 5 5 5 5 6 6 5
6 8 8 7 6 5 6 7 4 2 4 6 7 7 7 8 8 7 7 6 7 7 6 7 7 7 6 6 5 4 4 4 4 4 5 6 6 5 5 5 5 5 6 6 6 6 6 6 6
9 10 9 6 6 5 8 8 2 2 5 5 6 7 7 7 7 6 6 6 6 6 6 6 6 6 6 5 4 4 4 4 4 4 5 6 6 6 6 5 5 4 5 5 5 6 6 6 6
10 10 9 6 6 6 8 8 1 2 5 6 6 7 7 7 7 6 6 6 6 6 6 7 6 6 5 5 4 4 3 3 4 4 4 5 6 6 6 5 3 4 4 5 5 5 6 6 6
9 10 9 9 4 6 9 8 4 4 5 6 7 7 7 7 7 6 6 5 5 5 6 6 6 5 5 4 4 4 4 3 4 4 3 4 5 6 5 4 4 5 4 4 4 5 5 6 6
11 12 12 9 6 8 10 9 7 5 6 7 7 8 8 7 6 6 6 6 5 5 5 6 6 5 4 3 4 4 4 4 4 3 4 4 4 4 5 4 4 5 5 5 5 5 7 7 6
12 13 12 8 5 6 9 10 8 7 8 7 7 7 8 7 6 7 6 6 6 6 5 6 6 5 5 4 3 3 3 3 3 3 3 4 4 4 5 4 4 4 4 5 5 6 6 6 5
13 13 12 10 7 8 9 11 9 7 7 7 8 7 7 7 7 7 7 6 6 6 6 5 5 5 5 4 4 3 3 3 3 4 4 4 4 5 5 5 5 4 5 5 6 7 7 6 6
11 9 10 11 11 9 8 11 8 6 7 8 8 8 8 7 7 6 6 6 6 6 5 5 5 5 5 5 5 5 4 4 4 4 3 3 4 5 5 5 5 5 5 5 6 6 6 7 6
8 6 8 11 12 12 10 10 7 6 8 8 8 8 8 7 7 7 7 7 6 5 5 5 5 5 5 5 5 5 5 4 3 3 4 4 4 5 5 5 5 6 6 5 6 5 6 6 7
7 7 8 11 11 12 9 10 9 6 6 5 6 7 7 7 7 6 7 6 5 5 5 5 5 4 5 5 5 5 5 4 4 4 3 4 4 4 5 5 5 6 5 5 6 6 7 7 6
9 8 7 8 9 9 6 8 6 4 4 4 4 5 6 6 6 6 6 6 5 5 5 4 4 4 4 4 4 4 4 5 4 4 3 4 4 4 5 5 5 6 6 6 6 7 7 7 7
10 11 9 9 9 8 6 7 4 2 3 3 4 4 4 5 6 6 6 6 5 5 5 4 4 4 4 4 4 4 4 4 4 4 4 4 4 4 4 6 6 7 7 7 7 7 8 7 8
10 10 9 11 12 11 7 6 5 4 4 4 4 4 4 4 5 5 5 5 5 5 4 4 3 3 3 3 4 4 5 5 4 4 4 4 4 5 5 6 7 7 8 8 8 7 8 7 8
9 8 7 8 8 10 9 9 6 4 5 5 5 5 4 3 4 4 4 5 5 4 4 3 3 2 2 3 3 3 3 4 3 4 4 4 5 5 6 6 7 7 8 8 8 8 8 8 8
8 9 8 8 9 9 10 6 1 2 3 4 5 4 4 3 4 4 4 4 4 4 3 2 2 2 1 1 2 2 3 3 4 4 5 5 5 5 6 6 6 7 8 8 8 9 8 9 9
9 10 10 9 9 9 11 7 2 1 2 3 4 3 3 3 3 4 4 4 4 3 3 2 1 1 1 1 1 2 2 3 4 5 5 5 5 5 6 6 7 7 8 8 9 9 9 9 10
Wind_Direction
180 193 217 234 236 205 74 71 62 75 79 68 66 29 19 14 3 54 95 123 133 140 139 145 144 148 149 149 151 151 150 150 153 154 152 149 147 146 145 145 147 147 146 144 140 136 138 136 134
186 198 228 244 261 108 85 77 73 56 77 108 113 100 48 58 50 92 121 127 139 139 143 144 140 146 149 150 151 153 153 152 156 156 155 153 150 148 149 149 150 152 152 150 149 145 141 141 139
195 226 254 254 333 26 65 77 72 77 114 167 128 69 34 59 90 116 127 142 144 142 143 133 141 147 148 149 150 152 154 155 157 157 156 156 155 155 152 152 153 156 156 155 155 152 147 147 146
214 226 238 253 65 40 30 59 53 142 144 174 171 113 95 65 100 124 136 149 149 148 145 137 143 147 152 153 153 154 155 156 158 159 158 158 157 156 154 154 156 159 159 160 162 161 156 157 155
241 256 242 213 73 65 42 18 257 211 178 157 182 132 109 94 112 131 144 151 152 151 146 141 143 147 153 155 155 153 154 157 158 160 162 161 158 159 159 160 163 167 166 165 167 168 164 164 164
241 252 260 17 74 74 62 33 233 236 184 161 170 155 109 124 138 143 148 154 153 151 148 142 149 151 153 153 155 155 156 157 156 160 163 169 169 168 168 168 168 170 171 169 170 169 166 163 166
274 277 289 322 356 83 65 23 259 249 209 162 175 157 131 142 142 148 152 154 152 150 148 149 158 160 160 158 157 156 154 152 157 165 170 176 178 176 176 177 176 176 175 175 176 178 177 174 175
279 272 251 263 294 18 67 1 308 275 194 111 185 192 144 148 150 153 155 157 154 153 153 153 157 156 167 167 158 157 155 155 161 168 171 183 185 185 185 186 177 184 188 190 191 190 190 189 190
259 254 262 293 307 347 25 304 326 215 175 168 179 67 105 142 154 158 160 162 160 160 161 162 161 161 169 166 160 171 167 166 172 174 174 195 200 192 190 186 169 186 193 195 196 198 200 203 200
242 255 273 329 322 322 297 287 263 206 200 185 164 125 131 150 163 170 171 172 171 169 170 170 168 166 168 161 163 178 182 175 189 183 185 202 204 201 198 164 184 193 199 199 197 204 211 222 215
243 265 298 303 314 307 286 279 249 243 238 219 193 168 159 167 175 182 181 180 177 173 173 168 166 168 172 167 173 180 180 176 186 182 191 197 199 200 205 193 192 201 203 206 192 206 217 223 227
254 267 282 289 296 288 280 269 256 256 277 297 193 169 170 178 184 188 188 182 176 173 173 172 169 172 187 179 181 188 185 182 185 181 198 194 197 202 209 212 214 212 210 210 217 219 216 226 227
248 263 270 281 280 282 270 256 261 265 266 208 167 168 177 182 187 186 184 182 179 173 176 176 178 177 190 190 203 191 197 198 192 193 200 210 208 205 209 220 224 229 222 212 221 229 219 224 224
269 266 260 261 270 260 254 249 240 256 211 178 172 176 181 182 182 178 182 184 176 173 176 178 184 181 191 197 205 205 203 205 207 205 206 213 218 215 221 223 226 228 225 227 230 233 229 230 232
251 256 247 233 243 245 254 246 222 209 180 182 180 179 180 184 185 185 184 184 179 176 176 180 184 184 193 200 207 209 206 204 208 206 207 213 223 222 230 231 223 223 224 220 228 234 231 229 229
239 247 249 223 220 225 248 266 138 160 196 198 189 182 183 183 187 185 184 186 181 180 178 186 190 187 193 204 210 212 209 204 209 209 205 213 227 229 231 235 228 220 222 224 224 234 235 235 237
232 247 258 241 212 233 247 269 181 200 211 210 200 190 188 185 190 188 190 187 185 183 183 187 193 194 199 205 212 215 205 211 217 217 213 211 224 229 233 236 231 223 225 227 232 226 240 241 244
252 260 262 262 233 245 255 264 253 219 224 220 212 201 197 198 198 195 195 192 185 184 186 190 192 192 197 202 208 214 213 217 223 222 218 221 224 226 234 230 225 231 231 231 237 234 237 245 244
266 267 267 265 260 258 259 262 258 225 227 223 217 210 206 206 198 195 195 193 185 184 190 191 192 185 191 199 212 214 219 225 227 225 209 217 224 221 229 234 216 232 231 235 235 238 232 235 236
257 261 263 261 243 259 266 264 254 239 236 235 227 218 214 211 196 190 193 196 199 196 200 201 202 195 198 199 218 227 236 234 234 232 211 216 218 221 221 228 228 227 230 225 228 235 243 237 227
252 259 266 264 252 244 259 260 245 231 233 228 225 224 218 214 207 197 199 205 207 206 207 208 206 203 200 194 204 210 216 233 228 225 219 217 219 221 231 225 233 233 234 224 226 227 233 239 231
256 259 263 260 257 260 252 276 258 232 226 228 225 221 218 211 209 205 206 210 210 209 207 205 200 201 196 198 207 215 226 236 242 240 227 220 219 222 219 223 225 234 238 230 231 228 236 239 241
263 268 258 257 258 264 253 266 264 226 239 231 225 223 219 215 213 208 207 209 209 208 205 196 194 195 195 203 206 215 233 239 238 238 227 231 221 222 221 220 222 230 238 234 239 231 237 236 244
242 245 246 245 251 256 256 264 274 255 256 250 225 222 216 215 213 210 205 203 206 206 200 192 188 191 194 203 215 223 232 242 243 244 237 235 231 228 225 226 226 230 236 232 233 234 232 242 246
231 250 253 249 244 258 240 255 267 270 264 261 237 217 211 211 209 208 207 204 203 200 196 188 183 190 197 206 220 230 236 241 241 244 240 246 247 239 226 231 229 232 233 235 234 234 240 236 238
233 243 261 276 278 279 242 252 263 242 249 249 235 220 208 209 212 211 209 204 200 195 193 193 189 193 199 205 215 223 233 240 241 240 253 252 258 255 237 233 232 236 236 237 233 239 236 234 237
236 237 259 271 275 277 262 252 241 222 228 225 221 215 212 217 213 213 206 195 189 188 186 188 190 204 213 218 220 221 230 245 248 241 244 251 252 253 242 238 236 239 238 237 234 240 239 237 238
245 239 243 257 275 275 265 257 257 225 230 224 224 227 227 218 207 204 190 179 178 178 170 171 182 197 217 227 231 235 243 245 251 258 254 254 253 256 250 245 242 239 237 236 235 241 239 240 241
218 223 240 256 266 277 282 279 333 256 253 237 232 237 234 215 196 184 176 168 161 161 164 162 169 180 204 226 236 252 259 255 252 249 245 244 247 249 250 250 251 246 243 241 237 242 244 243 245
238 241 239 253 262 260 277 281 91 198 257 247 250 230 200 192 181 171 162 159 160 159 157 158 172 193 212 217 233 256 262 262 261 258 254 252 253 252 253 253 252 251 249 244 240 242 243 243 244
Height
1521 1521 1522 1524 1517 1506 1508 1507 1505 1506 1508 1511 1513 1512 1512 1512 1515 1523 1525 1524 1525 1527 1528 1529 1530 1531 1533 1534 1535 1536 1537 1538 1539 1540 1540 1541 1542 1543 1544 1545 1546 1547 1548 1549 1550 1551 1552 1553 1554
1523 1523 1524 1521 1507 1509 1510 1505 1506 1507 1511 1513 1514 1514 1514 1516 1520 1523 1523 1524 1526 1528 1528 1529 1530 1532 1533 1534 1535 1536 1537 1538 1539 1540 1541 1542 1543 1544 1545 1546 1547 1548 1549 1550 1551 1552 1553 1554 1554
1523 1523 1524 1512 1506 1509 1509 1506 1507 1509 1512 1513 1514 1516 1517 1519 1522 1523 1524 1525 1527 1528 1530 1529 1530 1532 1533 1534 1535 1536 1537 1538 1539 1540 1541 1542 1543 1544 1545 1546 1547 1548 1549 1550 1551 1552 1553 1554 1555
1525 1525 1520 1509 1508 1506 1506 1506 1508 1510 1512 1514 1514 1516 1519 1522 1523 1523 1523 1525 1528 1529 1530 1529 1531 1532 1533 1534 1536 1536 1537 1538 1539 1540 1541 1542 1543 1543 1544 1546 1547 1548 1549 1550 1551 1552 1553 1554 1555
1525 1521 1510 1507 1506 1506 1507 1509 1510 1509 1511 1513 1514 1515 1519 1522 1522 1523 1524 1526 1528 1529 1530 1530 1530 1532 1533 1534 1535 1536 1537 1538 1539 1540 1541 1542 1543 1544 1544 1546 1547 1548 1549 1550 1551 1552 1553 1554 1555
1523 1515 1509 1510 1507 1506 1508 1510 1510 1509 1510 1513 1514 1515 1519 1522 1522 1524 1525 1527 1528 1529 1530 1530 1530 1531 1532 1534 1535 1536 1537 1538 1539 1539 1540 1542 1543 1543 1544 1545 1546 1547 1548 1549 1550 1551 1552 1553 1554
1520 1511 1509 1508 1509 1507 1509 1511 1510 1509 1510 1513 1515 1515 1519 1522 1523 1524 1525 1527 1528 1529 1530 1530 1531 1531 1532 1533 1534 1535 1536 1537 1538 1539 1540 1541 1542 1543 1544 1544 1545 1546 1547 1549 1549 1550 1552 1552 1554
1520 1512 1507 1507 1508 1506 1509 1511 1511 1511 1511 1514 1515 1514 1517 1521 1522 1524 1525 1527 1528 1529 1530 1530 1531 1532 1532 1533 1534 1534 1535 1536 1537 1538 1539 1540 1541 1542 1543 1544 1545 1546 1547 1548 1549 1550 1551 1552 1553
1520 1513 1509 1506 1507 1506 1508 1510 1511 1512 1513 1514 1515 1516 1518 1520 1521 1523 1525 1526 1527 1528 1529 1530 1531 1532 1533 1534 1533 1534 1535 1535 1536 1538 1538 1539 1541 1542 1542 1543 1543 1545 1546 1547 1548 1549 1550 1551 1552
1517 1510 1507 1506 1507 1507 1508 1509 1510 1510 1511 1513 1515 1517 1518 1519 1521 1522 1524 1525 1526 1527 1528 1529 1530 1531 1532 1533 1533 1533 1535 1535 1536 1537 1537 1539 1540 1541 1542 1542 1542 1543 1544 1545 1546 1547 1548 1550 1552
1513 1509 1507 1508 1509 1510 1508 1508 1509 1508 1508 1510 1513 1515 1517 1519 1520 1522 1523 1524 1525 1526 1527 1528 1529 1530 1531 1532 1532 1533 1534 1534 1535 1535 1536 1537 1538 1539 1540 1541 1542 1542 1543 1544 1545 1546 1548 1550 1551
1511 1510 1510 1510 1510 1510 1508 1508 1508 1508 1509 1511 1512 1514 1515 1517 1519 1520 1522 1523 1524 1525 1526 1527 1528 1528 1529 1530 1531 1532 1532 1533 1533 1533 1534 1536 1537 1538 1539 1539 1540 1541 1542 1543 1544 1545 1547 1547 1548
1510 1509 1510 1510 1509 1508 1508 1507 1507 1507 1509 1510 1511 1513 1514 1516 1518 1519 1520 1521 1522 1523 1524 1525 1525 1526 1527 1527 1528 1530 1530 1531 1532 1532 1533 1534 1535 1536 1537 1537 1538 1539 1540 1541 1542 1543 1544 1545 1546
1508 1508 1508 1508 1507 1507 1506 1505 1505 1506 1508 1509 1510 1512 1513 1514 1516 1517 1518 1519 1520 1521 1522 1523 1523 1524 1524 1525 1526 1527 1528 1529 1530 1530 1531 1532 1533 1534 1535 1535 1536 1537 1538 1539 1540 1541 1542 1543 1543
1509 1507 1504 1504 1504 1504 1504 1501 1501 1504 1506 1508 1509 1511 1512 1514 1515 1516 1516 1517 1518 1519 1520 1520 1521 1522 1523 1524 1525 1526 1527 1527 1528 1529 1529 1529 1531 1531 1532 1533 1534 1534 1535 1536 1537 1538 1539 1540 1541
1504 1502 1501 1498 1500 1502 1504 1500 1500 1503 1505 1506 1508 1509 1511 1512 1513 1514 1515 1516 1517 1518 1518 1519 1520 1521 1521 1522 1523 1524 1525 1525 1526 1526 1527 1527 1528 1529 1529 1531 1531 1532 1533 1534 1534 1536 1537 1538 1538
1498 1499 1497 1494 1496 1498 1498 1496 1499 1502 1503 1504 1506 1508 1509 1511 1512 1513 1514 1514 1515 1516 1516 1517 1518 1519 1519 1520 1521 1522 1522 1523 1523 1524 1524 1525 1525 1526 1527 1528 1528 1529 1530 1531 1532 1533 1533 1534 1535
1497 1494 1493 1494 1492 1495 1495 1494 1496 1501 1501 1502 1504 1506 1507 1509 1510 1511 1512 1513 1514 1514 1514 1515 1516 1517 1517 1518 1518 1519 1520 1520 1521 1521 1521 1522 1522 1523 1524 1525 1525 1526 1527 1528 1529 1529 1530 1531 1532
1493 1494 1493 1491 1491 1494 1493 1492 1493 1497 1498 1499 1501 1503 1504 1506 1508 1509 1510 1511 1512 1512 1512 1513 1514 1514 1515 1516 1516 1517 1517 1518 1519 1519 1518 1519 1519 1520 1521 1522 1522 1523 1524 1525 1526 1526 1527 1528 1529
1493 1494 1491 1490 1491 1494 1491 1490 1489 1493 1495 1497 1498 1500 1502 1504 1506 1507 1508 1509 1510 1510 1510 1511 1511 1512 1512 1513 1513 1514 1515 1515 1516 1516 1516 1516 1516 1517 1518 1518 1519 1520 1520 1521 1522 1523 1524 1525 1526
1491 1491 1489 1490 1489 1490 1491 1489 1486 1488 1492 1494 1496 1497 1499 1501 1503 1504 1506 1507 1507 1508 1508 1508 1508 1509 1510 1510 1511 1512 1512 1513 1513 1513 1513 1513 1513 1514 1514 1515 1516 1517 1518 1518 1518 1519 1520 1521 1522
1490 1485 1486 1488 1491 1488 1489 1491 1482 1483 1487 1490 1492 1494 1496 1498 1500 1502 1503 1504 1505 1505 1506 1506 1506 1506 1507 1507 1508 1509 1509 1510 1510 1510 1511 1511 1511 1511 1511 1512 1513 1513 1514 1515 1515 1517 1517 1518 1519
1485 1484 1486 1486 1487 1488 1484 1489 1481 1480 1483 1484 1488 1490 1493 1495 1497 1498 1500 1501 1502 1503 1503 1503 1503 1504 1504 1505 1505 1506 1507 1508 1508 1508 1508 1508 1508 1508 1508 1508 1509 1510 1511 1511 1512 1513 1513 1514 1515
1484 1485 1485 1484 1483 1492 1484 1487 1483 1476 1478 1480 1483 1487 1490 1492 1494 1495 1497 1498 1499 1500 1500 1500 1500 1501 1501 1502 1502 1503 1504 1504 1505 1505 1505 1505 1505 1505 1505 1505 1506 1506 1507 1508 1508 1509 1509 1510 1511
1483 1487 1492 1492 1489 1486 1477 1482 1481 1475 1476 1479 1481 1485 1487 1490 1491 1492 1493 1494 1495 1496 1497 1498 1498 1498 1499 1499 1500 1500 1501 1501 1501 1501 1501 1502 1502 1502 1502 1502 1502 1503 1503 1504 1504 1505 1506 1506 1507
1479 1482 1493 1498 1489 1478 1475 1479 1474 1474 1477 1480 1482 1484 1486 1487 1489 1490 1491 1491 1492 1493 1494 1495 1496 1496 1497 1497 1497 1498 1498 1499 1499 1498 1499 1498 1499 1499 1499 1498 1498 1499 1499 1500 1501 1501 1502 1502 1502
1476 1476 1473 1481 1479 1482 1474 1472 1471 1473 1476 1478 1480 1482 1483 1485 1486 1487 1488 1489 1490 1491 1492 1493 1493 1494 1494 1495 1495 1495 1495 1496 1496 1495 1495 1495 1495 1496 1495 1495 1495 1495 1496 1496 1497 1498 1498 1498 1498
1470 1470 1476 1481 1491 1489 1476 1473 1470 1470 1472 1474 1477 1479 1481 1483 1484 1485 1486 1487 1488 1489 1490 1491 1491 1491 1492 1493 1493 1493 1493 1493 1492 1492 1492 1492 1492 1492 1492 1492 1491 1491 1492 1492 1492 1493 1494 1494 1494
1472 1473 1474 1473 1475 1485 1484 1474 1461 1466 1469 1472 1474 1477 1479 1481 1482 1484 1485 1486 1487 1488 1489 1489 1490 1490 1490 1491 1491 1490 1491 1491 1490 1489 1489 1488 1488 1488 1488 1488 1488 1487 1488 1488 1488 1489 1489 1490 1490
1465 1467 1471 1480 1480 1476 1477 1474 1463 1467 1470 1472 1474 1476 1478 1480 1481 1482 1484 1485 1486 1487 1488 1488 1489 1489 1489 1489 1489 1488 1488 1488 1488 1487 1486 1486 1485 1485 1485 1485 1484 1484 1484 1484 1484 1484 1485 1486 1486